PEGASUS R/B (44629 NORAD) Tracking and Keplerian Element Data

This shows tracking and keplerian element data for the satellite.

Feedback or suggestion? Click here.




ElementValue
Catalog44629
NamePEGASUS R/B
Epoch Orbit411
Epoch Day311.61647157
Epoch Year2019
RAAN46.8884
Inclination26.9959
Eccentricity0.0015682
Argument of Perigee65.2951
Mean Anonmoly294.924
Mean Motion14.92444331
Decay Rate3.7E-06
L11 44629U 19068B 19311.61647157 .00000370 00000-0 15923-4 0 9995
L22 44629 26.9959 46.8884 0015682 65.2951 294.9240 14.92444331 4116



Live tracking and technical data element details for PEGASUS R/B (NORAD 44629). PEGASUS R/B can be tracked NOW for your location showing map with azimuth and elevation plus other details from your city location.







IsCatalogInMostPopularTable: catalog: 44629, numindb: 230
Update: records affected: 1



GetName: 44629 PEGASUS R/B

Hit Count: updated at: Sun, 28 May 2023 20:27:12 GMT